• In Kazakhstan
  • List of Countries
  • For 7 days
  • Water Temperature
  • Weather Map
  • News
  • Weather Widgets
  • user-avatar
    Login

    Hourly Weather Naftalan

    Today, 6 June, Saturday

    Time Temperature Precipitation Wind Pressure Humidity
    00:00 +22°C° 0 mm 4 mps 765 mmHg 63%
    01:00 +22°C° 0 mm 3 mps 765 mmHg 63%
    02:00 +22°C° 0 mm 3 mps 765 mmHg 64%
    03:00 +22°C° 0 mm 3 mps 766 mmHg 64%
    04:00 +22°C° 0 mm 3 mps 766 mmHg 63%
    05:00 +24°C° 0 mm 3 mps 766 mmHg 61%
    06:00 +24°C° 0 mm 3 mps 766 mmHg 60%
    07:00 +25°C° 0 mm 3 mps 766 mmHg 57%
    08:00 +26°C° 0 mm 3 mps 766 mmHg 53%
    09:00 +27°C° 0 mm 2 mps 767 mmHg 48%
    10:00 +27°C° 0 mm 2 mps 767 mmHg 46%
    11:00 +28°C° 0 mm 3 mps 767 mmHg 45%
    12:00 +28°C° 0 mm 3 mps 767 mmHg 43%
    13:00 +28°C° 0.1 mm 3 mps 766 mmHg 42%
    14:00 +28°C° 0.1 mm 3 mps 766 mmHg 42%
    15:00 +28°C° 0 mm 3 mps 766 mmHg 42%
    16:00 +28°C° 0.2 mm 3 mps 766 mmHg 44%
    17:00 +27°C° 0.2 mm 3 mps 766 mmHg 47%
    18:00 +26°C° 0.2 mm 3 mps 766 mmHg 50%
    19:00 +25°C° 0.1 mm 3 mps 766 mmHg 53%
    20:00 +24°C° 0.1 mm 2 mps 766 mmHg 56%
    21:00 +23°C° 0.1 mm 2 mps 766 mmHg 60%
    22:00 +23°C° 0 mm 2 mps 766 mmHg 59%
    23:00 +23°C° 0 mm 2 mps 766 mmHg 58%

    Tomorrow, 7 June, Sunday

    Time Temperature Precipitation Wind Pressure Humidity
    00:00 +23°C° 0 mm 2 mps 766 mmHg 57%
    01:00 +23°C° 0 mm 2 mps 766 mmHg 58%
    02:00 +21°C° 0 mm 2 mps 766 mmHg 60%
    03:00 +22°C° 0 mm 1 mps 766 mmHg 61%
    04:00 +23°C° 0 mm 2 mps 766 mmHg 58%
    05:00 +23°C° 0 mm 2 mps 766 mmHg 55%
    06:00 +24°C° 0 mm 2 mps 766 mmHg 51%
    07:00 +26°C° 0 mm 3 mps 766 mmHg 48%
    08:00 +27°C° 0 mm 3 mps 765 mmHg 44%
    09:00 +28°C° 0 mm 4 mps 765 mmHg 41%
    10:00 +28°C° 0 mm 4 mps 765 mmHg 41%
    11:00 +29°C° 0 mm 5 mps 765 mmHg 40%
    12:00 +30°C° 0 mm 5 mps 765 mmHg 40%
    13:00 +29°C° 0 mm 5 mps 764 mmHg 40%
    14:00 +29°C° 0 mm 6 mps 764 mmHg 41%
    15:00 +29°C° 0 mm 6 mps 764 mmHg 41%
    16:00 +28°C° 0 mm 6 mps 764 mmHg 44%
    17:00 +27°C° 0 mm 6 mps 763 mmHg 48%
    18:00 +26°C° 0 mm 7 mps 763 mmHg 51%
    19:00 +26°C° 0 mm 6 mps 763 mmHg 56%
    20:00 +25°C° 0 mm 5 mps 764 mmHg 60%
    21:00 +23°C° 0 mm 5 mps 764 mmHg 65%
    22:00 +23°C° 0 mm 5 mps 764 mmHg 67%
    23:00 +22°C° 0 mm 4 mps 763 mmHg 69%

    Day after tomorrow, 8 June, Monday

    Time Temperature Precipitation Wind Pressure Humidity
    00:00 +22°C° 0 mm 4 mps 763 mmHg 71%
    01:00 +22°C° 0 mm 4 mps 763 mmHg 72%
    02:00 +22°C° 0 mm 3 mps 763 mmHg 72%
    03:00 +21°C° 0 mm 3 mps 763 mmHg 72%
    04:00 +22°C° 0 mm 4 mps 763 mmHg 70%
    05:00 +23°C° 0 mm 4 mps 763 mmHg 68%
    06:00 +23°C° 0 mm 5 mps 763 mmHg 66%
    07:00 +25°C° 0 mm 5 mps 763 mmHg 60%
    08:00 +27°C° 0 mm 5 mps 763 mmHg 54%
    09:00 +28°C° 0 mm 5 mps 763 mmHg 48%
    10:00 +28°C° 0 mm 5 mps 763 mmHg 47%
    11:00 +29°C° 0 mm 5 mps 763 mmHg 46%
    12:00 +29°C° 0 mm 6 mps 762 mmHg 45%
    13:00 +29°C° 0 mm 6 mps 762 mmHg 45%
    14:00 +29°C° 0 mm 6 mps 762 mmHg 45%
    15:00 +29°C° 0 mm 6 mps 761 mmHg 46%
    16:00 +28°C° 0 mm 6 mps 761 mmHg 49%
    17:00 +27°C° 0 mm 6 mps 761 mmHg 52%
    18:00 +26°C° 0 mm 6 mps 761 mmHg 56%
    19:00 +25°C° 0 mm 5 mps 762 mmHg 60%
    20:00 +25°C° 0 mm 5 mps 762 mmHg 64%
    21:00 +23°C° 0 mm 5 mps 762 mmHg 68%
    22:00 +22°C° 0 mm 5 mps 762 mmHg 70%
    23:00 +22°C° 0 mm 4 mps 762 mmHg 72%

    9 June, Tuesday

    Time Temperature Precipitation Wind Pressure Humidity
    00:00 +22°C° 0 mm 4 mps 762 mmHg 74%
    01:00 +22°C° 0 mm 4 mps 761 mmHg 75%
    02:00 +22°C° 0 mm 4 mps 761 mmHg 75%
    03:00 +21°C° 0 mm 3 mps 761 mmHg 75%
    04:00 +22°C° 0 mm 4 mps 762 mmHg 72%
    05:00 +23°C° 0 mm 4 mps 762 mmHg 69%
    06:00 +23°C° 0 mm 4 mps 762 mmHg 66%
    07:00 +26°C° 0 mm 4 mps 762 mmHg 60%
    08:00 +27°C° 0 mm 4 mps 762 mmHg 54%
    09:00 +28°C° 0 mm 4 mps 762 mmHg 48%
    10:00 +29°C° 0 mm 4 mps 762 mmHg 45%
    11:00 +30°C° 0 mm 4 mps 762 mmHg 41%
    12:00 +32°C° 0 mm 4 mps 762 mmHg 38%
    13:00 +32°C° 0 mm 4 mps 762 mmHg 37%
    14:00 +32°C° 0 mm 4 mps 761 mmHg 37%
    15:00 +32°C° 0 mm 4 mps 761 mmHg 36%
    16:00 +29°C° 0 mm 4 mps 761 mmHg 39%
    17:00 +28°C° 0 mm 4 mps 761 mmHg 42%
    18:00 +27°C° 0 mm 3 mps 761 mmHg 46%
    19:00 +27°C° 0 mm 3 mps 761 mmHg 48%
    20:00 +26°C° 0 mm 3 mps 761 mmHg 51%
    21:00 +25°C° 0 mm 3 mps 761 mmHg 54%
    22:00 +25°C° 0 mm 3 mps 761 mmHg 56%
    23:00 +24°C° 0 mm 2 mps 761 mmHg 57%

    10 June, Wednesday

    Time Temperature Precipitation Wind Pressure Humidity
    00:00 +24°C° 0 mm 2 mps 761 mmHg 58%
    01:00 +24°C° 0 mm 2 mps 761 mmHg 60%
    02:00 +23°C° 0 mm 2 mps 761 mmHg 61%
    03:00 +23°C° 0 mm 2 mps 760 mmHg 63%
    04:00 +24°C° 0 mm 1 mps 761 mmHg 62%
    05:00 +24°C° 0 mm 1 mps 761 mmHg 61%
    06:00 +25°C° 0 mm 1 mps 761 mmHg 60%
    07:00 +27°C° 0 mm 1 mps 761 mmHg 53%
    08:00 +29°C° 0 mm 1 mps 761 mmHg 45%
    09:00 +30°C° 0 mm 1 mps 761 mmHg 38%
    10:00 +31°C° 0 mm 2 mps 761 mmHg 35%
    11:00 +32°C° 0 mm 2 mps 761 mmHg 32%
    12:00 +34°C° 0 mm 3 mps 761 mmHg 29%
    13:00 +34°C° 0 mm 4 mps 761 mmHg 29%
    14:00 +34°C° 0 mm 4 mps 760 mmHg 29%
    15:00 +33°C° 0 mm 4 mps 760 mmHg 29%
    16:00 +32°C° 0 mm 4 mps 760 mmHg 31%
    17:00 +30°C° 0 mm 3 mps 760 mmHg 34%
    18:00 +29°C° 0 mm 3 mps 760 mmHg 36%
    19:00 +28°C° 0 mm 3 mps 760 mmHg 39%
    20:00 +27°C° 0 mm 2 mps 760 mmHg 42%
    21:00 +26°C° 0 mm 2 mps 760 mmHg 45%
    22:00 +26°C° 0 mm 2 mps 760 mmHg 45%
    23:00 +25°C° 0 mm 2 mps 760 mmHg 46%

    11 June, Thursday

    Time Temperature Precipitation Wind Pressure Humidity
    00:00 +25°C° 0 mm 2 mps 759 mmHg 47%
    01:00 +24°C° 0 mm 1 mps 759 mmHg 48%
    02:00 +24°C° 0 mm 1 mps 759 mmHg 49%
    03:00 +23°C° 0 mm 1 mps 759 mmHg 50%
    04:00 +24°C° 0 mm 1 mps 759 mmHg 48%
    05:00 +25°C° 0 mm 1 mps 759 mmHg 46%
    06:00 +26°C° 0 mm 1 mps 759 mmHg 44%
    07:00 +28°C° 0 mm 1 mps 759 mmHg 39%
    08:00 +30°C° 0 mm 1 mps 759 mmHg 34%
    09:00 +31°C° 0 mm 2 mps 759 mmHg 29%
    10:00 +32°C° 0.1 mm 2 mps 759 mmHg 28%
    11:00 +33°C° 0.1 mm 3 mps 759 mmHg 27%
    12:00 +34°C° 0.1 mm 3 mps 758 mmHg 26%
    13:00 +34°C° 0 mm 3 mps 758 mmHg 26%
    14:00 +34°C° 0 mm 4 mps 757 mmHg 26%
    15:00 +34°C° 0 mm 4 mps 757 mmHg 26%
    16:00 +33°C° 0 mm 3 mps 757 mmHg 29%
    17:00 +31°C° 0 mm 3 mps 757 mmHg 32%
    18:00 +30°C° 0 mm 2 mps 757 mmHg 35%
    19:00 +28°C° 0 mm 2 mps 757 mmHg 39%
    20:00 +27°C° 0 mm 2 mps 757 mmHg 42%
    21:00 +26°C° 0 mm 2 mps 757 mmHg 46%
    22:00 +26°C° 0 mm 2 mps 757 mmHg 49%
    23:00 +25°C° 0 mm 2 mps 756 mmHg 53%
    Show more